Prescott, AZ

12:38 AM MST on November 17, 2019 (GMT -0700)
Love

Weather History for KPRC - May, 2019

Change the Weather History Date:

Thursday, May 16, 2019

  Actual Average Record
Temperature  
Mean Temperature 62 °F 62 °F  
Max Temperature 72 °F 77 °F 91 °F (1997)
Min Temperature 51 °F 47 °F 31 °F (1955)
Degree Days  
Heating Degree Days 4    
Month to date heating degree days 104  
Since 1 July heating degree days 4153  
Cooling Degree Days 0    
Month to date cooling degree days 0  
Year to date cooling degree days 1  
Growing Degree Days 12 (Base 50)    
Moisture  
Dew Point 34 °F    
Average Humidity 37    
Maximum Humidity 66    
Minimum Humidity 20    
Precipitation  
Precipitation 0.00 in 0.01 in 0.54 in (1993)
Month to date precipitation 0.81 0.23  
Year to date precipitation 6.33 4.31  
Sea Level Pressure  
Sea Level Pressure 29.70 in    
Wind  
Wind Speed 9 mph ()    
Max Wind Speed 30 mph    
Max Gust Speed 40 mph    
Visibility 9.9 miles    
Events      
T = Trace of Precipitation, MM = Missing Value Source: Averaged Metar Reports

Daily Weather History Graph

Daily Weather History Graph

Search for Another Location

Airport or City:

Astronomy

May. 16, 2019 Rise Set
Actual Time 5:26 AM MST 7:26 PM MST
Civil Twilight 4:58 AM MST 7:54 PM MST
Nautical Twilight 4:24 AM MST 8:28 PM MST
Astronomical Twilight 3:47 AM MST 9:05 PM MST
Moon 5:18 PM MST (5/16) 4:16 AM MST (5/16)
Length of Visible Light 14h 56m
Length of Day
14h 00m
Waxing Gibbous, 95% of the Moon is Illuminated
May 16
Waxing Gibbous
May 18
Full
May 26
Last Quarter
Jun 3
New
Jun 9
First Quarter

Hourly Weather History & Observations

Time (MST) Temp. Dew Point Humidity Pressure Visibility Wind Dir Wind Speed Gust Speed Precip Events Conditions
12:53 AM 57.9 °F 34.0 °F 41% 29.75 in 10.0 mi SSE 3.5 mph - N/A   Clear
1:53 AM 62.1 °F 30.9 °F 31% 29.73 in 10.0 mi SSW 4.6 mph - N/A   Clear
2:53 AM 61.0 °F 30.9 °F 32% 29.71 in 10.0 mi South 5.8 mph 17.3 mph N/A   Clear
3:53 AM 57.9 °F 32.0 °F 37% 29.73 in 10.0 mi Variable 5.8 mph - N/A   Clear
4:53 AM 57.0 °F 33.1 °F 40% 29.73 in 10.0 mi Calm Calm - N/A   Clear
5:53 AM 55.0 °F 35.1 °F 47% 29.75 in 10.0 mi SE 4.6 mph - N/A   Clear
6:53 AM 55.0 °F 37.0 °F 51% 29.76 in 10.0 mi Calm Calm - N/A   Clear
7:53 AM 62.1 °F 34.0 °F 35% 29.73 in 10.0 mi South 10.4 mph - N/A   Clear
8:53 AM 66.9 °F 34.0 °F 30% 29.73 in 10.0 mi SSE 13.8 mph 23.0 mph N/A   Clear
9:53 AM 69.1 °F 30.9 °F 24% 29.70 in 10.0 mi SSW 17.3 mph 24.2 mph N/A   Clear
10:53 AM 71.1 °F 30.0 °F 22% 29.70 in 10.0 mi South 18.4 mph 27.6 mph N/A   Clear
11:53 AM 71.1 °F 28.9 °F 21% 29.70 in 10.0 mi South 20.7 mph 31.1 mph N/A   Clear
12:53 PM 71.1 °F 30.0 °F 22% 29.70 in 10.0 mi South 19.6 mph 34.5 mph N/A   Clear
1:53 PM 70.0 °F 30.0 °F 23% 29.68 in 10.0 mi South 23.0 mph 36.8 mph N/A   Clear
2:53 PM 72.0 °F 34.0 °F 25% 29.67 in 10.0 mi SSW 24.2 mph 40.3 mph N/A   Scattered Clouds
3:53 PM 70.0 °F 28.0 °F 21% 29.66 in 10.0 mi South 19.6 mph 35.7 mph N/A   Scattered Clouds
4:53 PM 69.1 °F 30.0 °F 23% 29.66 in 10.0 mi SSW 21.9 mph 33.4 mph N/A   Clear
5:53 PM 64.9 °F 34.0 °F 32% 29.66 in 10.0 mi SSW 26.5 mph 39.1 mph N/A   Mostly Cloudy
6:53 PM 57.9 °F 45.0 °F 62% 29.69 in 10.0 mi SW 21.9 mph 31.1 mph N/A   Mostly Cloudy
7:53 PM 60.1 °F 41.0 °F 49% 29.68 in 10.0 mi SW 13.8 mph 23.0 mph N/A   Clear
8:53 PM 57.9 °F 39.0 °F 49% 29.68 in 10.0 mi South 10.4 mph - N/A   Clear
9:53 PM 57.0 °F 39.9 °F 53% 29.68 in 10.0 mi SSW 8.1 mph - N/A   Clear
10:53 PM 54.0 °F 42.1 °F 64% 29.68 in 9.0 mi Calm Calm - N/A   Clear
11:53 PM 51.1 °F 39.0 °F 63% 29.69 in 9.0 mi West 11.5 mph - N/A   Scattered Clouds